Regional Weather Roundup
Issued by NWS Cleveland, OH

Home | Current Version | Previous Version | Text Only | Print | Product List | Glossary On
Versions: 1 2 3 4 5 6 7 8 9 10 11 12 13 14 15 16 17 18 19 20 21 22 23 24 25 26 27 28 29 30 31 32 33 34 35 36 37 38 39 40 41 42 43 44 45 46 47 48 49 50
000
ASUS41 KCLE 202212
RWRCLE
OHIO REGIONAL WEATHER ROUNDUP
NATIONAL WEATHER SERVICE WILMINGTON, OH
500 PM EST FRI JAN 20 2017

NOTE: "FAIR" INDICATES FEW OR NO CLOUDS BELOW 12,000 FEET WITH NO
SIGNIFICANT WEATHER AND/OR OBSTRUCTIONS TO VISIBILITY.

OHZ001>008-015>018-024>027-034-035-043-044-202300-
   NORTHWEST OHIO

CITY           SKY/WX    TMP DP  RH WIND       PRES   REMARKS
DEFIANCE       CLOUDY    46  44  93 S5        29.69R
FINDLAY        CLOUDY    51  47  86 SW7       29.68R
TOLEDO EXPRESS CLOUDY    45  45 100 SW6       29.68R
TOLEDO EXEC    CLOUDY    46  45  96 SW6       29.69R FOG
LIMA           CLOUDY    50  50 100 W3        29.70R
$$

OHZ009>014-019>023-028>033-038-089-202300-
   NORTHEAST OHIO

CITY           SKY/WX    TMP DP  RH WIND       PRES   REMARKS
CLE-HOPKINS    CLOUDY    55  48  77 W13       29.73R
CLE-LAKEFRONT  FOG       44  44 100 VRB6      29.71R VSB 1/4
CUY CO. ARPT   FOG       54  52  94 W12       29.72R VSB 1
LORAIN-ELYRIA  CLOUDY    52  47  83 W9        29.71R
ASHTABULA      CLOUDY    49  49 100 S7        29.71R
AKRON-CANTON   MOCLDY    56  48  74 W7        29.71R
WOOSTER        CLOUDY    53  50  89 W6        29.71R
MANSFIELD      CLOUDY    53  52  96 SW7       29.71R
YOUNGSTOWN     LGT RAIN  52  50  93 SW9       29.73R FOG
$$

OHZ042-051>053-060>062-070>072-077>081-202300-
  SOUTHWEST OHIO

CITY           SKY/WX    TMP DP  RH WIND       PRES   REMARKS
CINC-COVINGTON MOCLDY    59  49  69 SW9       29.72R
CINC-LUNKEN    FAIR      60  51  72 SW12      29.73R
HAMILTON       MOCLDY    61  51  70 SW3       29.72R
DAYTON         MOCLDY    54  47  77 W10       29.71R
WRIGHT-PAT AFB MOCLDY    56  50  80 SW5       29.71R
DAYTON GENERAL MOCLDY    57  49  74 SW9       29.71R
WILMINGTON     FAIR      56  50  80 SW9       29.71R
$$

OHZ036-037-039>041-045>050-054>059-063>069-073>076-082>088-202300-
  CENTRAL AND SOUTHEAST OHIO

CITY           SKY/WX    TMP DP  RH WIND       PRES   REMARKS
COLUMBUS       MOCLDY    60  49  66 SW12      29.71R
OSU AIRPORT    CLOUDY    57  51  80 W5        29.71R
BOLTON FIELD   CLOUDY    57  52  82 SW7       29.72R
RICKENBACK AFB   N/A     58  50  76 SW10      29.72R
NEWARK         CLOUDY    58  50  75 SW7       29.72R
MARION         CLOUDY    55  48  77 SW9       29.71R
LANCASTER      MOCLDY    60  50  69 SW8       29.73R
ZANESVILLE     CLOUDY    60  48  64 SW8       29.74R
NEW PHILLY     CLOUDY    58  49  72 SW7       29.73R
$$




USA.gov is the U.S. government's official web portal to all federal, state and local government web resources and services.